Location: Newark
(49.9828°N, 3.1606°E)
Time: 14:39:45
(UTC+00:00)

Envisat - Pass Details

Date: 24 January 2020
Orbit: 764 x 766 km, 98.1° (Epoch: 28 February)

Event Time Altitude Azimuth Distance (km) Brightness Sun altitude
Rises 06:46:29 0° 13° (NNE) 3,246 6.2 -7.4°
Reaches altitude 10° 06:48:48 10° 13° (NNE) 2,315 5.4 -7.1°
Maximum altitude 06:53:54 84° 286° (WNW) 777 3.0 -6.3°
Drops below altitude 10° 06:58:59 10° 199° (SSW) 2,297 5.6 -5.6°
Sets 07:01:16 0° 198° (SSW) 3,219 6.3 -5.2°
